GW3985 Weather Reports


Display with metric or nautical units.
time (UTC)temp
F
wind
direction
speed
MPH
gust
MPH
rain 1hr
in
rain 24hr
in
rain mn
in
humidity
%
barometer
mb
20260506123015 29 0.0 0.0 0.00 0.26 0.00 94 1020.5
20260506122016 29 0.0 0.0 0.00 0.27 0.00 94 1020.7
20260506121016 29 0.0 0.0 0.00 0.27 0.00 94 1020.5
20260506120017 29 0.0 0.0 0.00 0.28 0.00 94 1020.4
20260506115057 29 0.0 0.0 0.00 0.28 0.00 94 1020.5
20260506114015 29 0.0 0.0 0.00 0.28 0.00 94 1020.0
20260506113015 29 0.0 0.0 0.00 0.28 0.00 94 1019.8
20260506112015 29 0.0 0.0 0.00 0.29 0.00 94 1020.0
20260506111016 29 0.0 0.0 0.00 0.30 0.00 94 1020.1
20260506110016 29 0.0 0.0 0.00 0.30 0.00 94 1020.0
20260506105017 29 0.0 0.0 0.00 0.30 0.00 94 1019.8
20260506104017 29 0.0 0.0 0.00 0.30 0.00 94 1019.9
20260506103035 29 0.0 0.0 0.00 0.30 0.00 94 1020.0
20260506102015 29 0.0 0.0 0.00 0.30 0.00 94 1020.0
20260506101015 29 0.0 0.0 0.00 0.30 0.00 94 1019.9
20260506100016 29 0.0 0.0 0.00 0.30 0.00 94 1019.8
20260506095016 30 0.0 0.0 0.00 0.30 0.00 95 1019.9
20260506094016 30 0.0 0.0 0.00 0.30 0.00 94 1019.8
20260506093017 30 0.0 0.0 0.00 0.30 0.00 94 1019.5
20260506092014 30 0.0 0.0 0.00 0.30 0.00 94 1019.5
20260506091035 30 0.0 0.0 0.00 0.30 0.00 95 1019.6
20260506090015 30 0.0 0.0 0.00 0.30 0.00 95 1019.6
20260506085016 30 0.0 0.0 0.00 0.30 0.00 95 1019.7
20260506084016 30 0.0 0.0 0.00 0.30 0.00 95 1019.8
20260506083057 30 0.0 0.0 0.00 0.30 0.00 95 1019.9
20260506082017 30 0.0 0.0 0.00 0.30 0.00 95 1019.8
20260506081015 30 0.0 0.0 0.00 0.30 0.00 95 1019.7
20260506073016 30 0.0 0.0 0.00 0.30 0.00 95 1019.6
20260506072016 30 0.0 0.0 0.00 0.30 0.00 95 1019.7
20260506071037 31 0.0 0.0 0.00 0.30 0.00 95 1019.8
20260506062036 31 0.0 0.0 0.00 0.30 0.00 95 1019.3
20260506061016 31 0.0 0.0 0.00 0.30 0.00 95 1019.2
20260506051016 31 0.0 0.0 0.00 0.31 0.30 95 1018.9
20260506045017 31 0.0 0.0 0.00 0.36 0.30 95 1018.9
20260506044015 31 0.0 0.0 0.00 0.43 0.30 95 1018.8
20260506043015 31 0.0 0.0 0.00 0.44 0.30 95 1018.9
20260506042016 31 0.0 0.0 0.00 0.45 0.30 95 1019.0
20260506041016 31 0.0 0.0 0.00 0.46 0.30 95 1019.0
20260506040016 31 62 0.0 1.0 0.00 0.46 0.30 95 1018.9
20260506035016 31 0.0 0.0 0.00 0.48 0.30 95 1018.8
20260506034017 31 0.0 0.0 0.00 0.49 0.30 95 1018.5
20260506033015 31 87 0.0 1.0 0.00 0.49 0.30 95 1018.4
20260506032015 31 0.0 0.0 0.00 0.49 0.30 95 1018.3
20260506031015 31 20 0.0 1.0 0.00 0.49 0.30 95 1018.1
20260506030016 32 246 0.0 1.0 0.00 0.49 0.30 95 1017.9
20260506025016 32 289 0.0 1.0 0.00 0.49 0.30 95 1017.9
20260506024017 32 0.0 0.0 0.00 0.49 0.30 95 1017.6
20260506023017 32 0.0 0.0 0.00 0.49 0.30 95 1017.2
20260506022015 32 0.0 0.0 0.00 0.49 0.30 95 1017.0
20260506021015 32 0.0 0.0 0.00 0.49 0.30 95 1017.0
20260506020015 32 0.0 0.0 0.00 0.49 0.30 95 1016.8
20260506015016 32 0.0 0.0 0.00 0.49 0.30 95 1016.8
20260506014016 32 297 0.0 1.0 0.00 0.49 0.30 95 1016.7
20260506013017 32 131 0.0 1.0 0.00 0.49 0.30 95 1016.5
20260506012037 32 0.0 0.0 0.00 0.49 0.30 94 1016.5
20260506011015 32 304 0.0 1.0 0.00 0.49 0.30 94 1016.4
20260506010015 32 21 0.0 1.0 0.00 0.49 0.30 94 1016.2
20260506005035 32 96 0.0 1.0 0.00 0.49 0.30 94 1016.3
20260506004016 32 83 0.0 1.0 0.00 0.49 0.30 94 1016.3
20260506003016 32 301 0.0 2.0 0.00 0.49 0.30 94 1016.1
20260506002016 33 85 0.0 1.0 0.00 0.49 0.30 94 1016.1
20260506001037 33 85 0.0 1.0 0.00 0.49 0.30 94 1016.0
20260506000055 33 0.0 0.0 0.00 0.49 0.30 94 1015.8
20260505235015 33 0.0 0.0 0.00 0.49 0.30 94 1015.9
20260505234016 33 0.0 0.0 0.01 0.49 0.30 94 1015.9
20260505233016 34 246 0.0 1.0 0.01 0.49 0.30 94 1015.8
20260505232017 34 20 0.0 1.0 0.02 0.49 0.30 94 1015.9
20260505231017 34 297 0.0 1.0 0.02 0.49 0.30 94 1015.8
20260505230017 34 231 0.0 1.0 0.03 0.49 0.30 94 1015.4
20260505225115 34 206 0.0 1.0 0.04 0.49 0.30 94 1015.2
20260505224035 34 231 0.0 1.0 0.04 0.48 0.29 93 1015.1
20260505223016 35 351 0.0 1.0 0.05 0.48 0.29 93 1015.1
20260505222036 35 0.0 0.0 0.05 0.47 0.28 93 1014.9
20260505221016 35 0.0 0.0 0.06 0.46 0.28 93 1014.9
20260505220016 35 110 0.0 1.0 0.06 0.46 0.27 93 1015.0
20260505215037 36 236 0.0 1.0 0.06 0.45 0.26 93 1015.3
20260505214035 35 247 0.0 1.0 0.06 0.44 0.25 93 1015.2
20260505213035 35 102 0.0 1.0 0.06 0.43 0.24 92 1015.2
20260505212016 36 102 0.0 1.0 0.07 0.43 0.24 92 1015.4
20260505211016 36 123 0.0 1.0 0.06 0.41 0.22 92 1015.5
20260505210016 37 266 0.0 1.0 0.06 0.40 0.21 92 1015.7
20260505205017 37 0.0 0.0 0.06 0.39 0.20 92 1016.0
20260505204017 37 91 0.0 1.0 0.06 0.38 0.19 92 1015.9
20260505203015 37 270 0.0 2.0 0.06 0.37 0.18 92 1016.2
20260505202015 37 116 0.0 1.0 0.05 0.35 0.17 92 1016.3
20260505201015 38 107 0.0 1.0 0.05 0.35 0.16 92 1016.3
20260505200016 38 0.0 0.0 0.05 0.34 0.15 91 1016.3
20260505195016 38 106 0.0 2.0 0.05 0.33 0.14 92 1016.3
20260505194017 38 259 0.0 1.0 0.04 0.32 0.13 92 1016.3
20260505193017 38 275 0.0 1.0 0.04 0.31 0.13 92 1016.3
20260505192015 38 133 0.0 1.0 0.03 0.31 0.12 93 1016.5
20260505191015 38 187 0.0 1.0 0.02 0.30 0.11 92 1016.6
20260505190016 37 118 0.0 1.0 0.02 0.29 0.10 92 1016.8
20260505185016 37 118 0.0 1.0 0.01 0.28 0.09 92 1016.8
20260505184017 37 102 0.0 1.0 0.01 0.28 0.09 93 1016.8
20260505183017 37 96 0.0 2.0 0.01 0.28 0.09 92 1016.9
20260505182017 37 103 0.0 2.0 0.01 0.28 0.09 92 1017.0
20260505181015 37 111 0.0 1.0 0.01 0.28 0.09 92 1017.2
20260505180015 37 101 0.0 1.0 0.01 0.28 0.09 93 1017.3
20260505175015 37 97 0.0 1.0 0.01 0.28 0.09 93 1017.3
20260505174016 37 113 0.0 2.0 0.01 0.28 0.09 93 1017.3
20260505173036 37 79 0.0 2.0 0.00 0.27 0.08 93 1017.5
20260505172017 37 67 0.0 3.0 0.00 0.27 0.08 93 1017.4
20260505171014 37 100 0.0 1.0 0.00 0.27 0.08 93 1017.6
20260505170035 36 98 1.0 3.0 0.00 0.27 0.08 93 1017.7
20260505165016 37 105 0.0 3.0 0.00 0.27 0.08 93 1017.8
20260505164016 36 102 0.0 3.0 0.00 0.27 0.08 93 1017.8
20260505163016 36 109 1.0 3.0 0.00 0.27 0.08 93 1017.8
20260505162017 36 96 0.0 4.0 0.00 0.27 0.08 93 1017.8
20260505161017 36 91 0.0 2.0 0.00 0.27 0.08 93 1017.8
20260505153036 36 99 0.0 2.0 0.01 0.27 0.08 94 1017.9
20260505152016 36 100 0.0 1.0 0.01 0.27 0.08 94 1018.0
20260505151017 36 116 0.0 2.0 0.01 0.27 0.08 94 1017.9
20260505125017 38 194 1.0 3.0 0.02 0.24 0.05 92 1016.3
20260505124037 38 245 0.0 3.0 0.03 0.24 0.05 92 1016.0